Location: University of Redlands
(34.0627°N, 117.1632°W)
Time: 07:47:55
(UTC-07:00)

ISS - Visible Passes

Search period start: 24 June 2018 00:00
Search period end: 04 July 2018 00:00
Orbit: 402 x 407 km, 51.6° (Epoch: 25 June)

Date Brightness Start Highest point End Pass type
(mag) Time Alt. Az. Time Alt. Az. Time Alt. Az.
29 Jun -1.7 04:41:11 10° S 04:43:42 21° SE 04:46:14 10° ENE visible
01 Jul -3.6 04:33:40 20° SSW 04:35:43 61° SE 04:38:57 10° NE visible
02 Jul -2.3 03:43:38 27° SE 03:43:39 27° SE 03:46:29 10° ENE visible
03 Jul -3.1 04:26:12 23° W 04:27:50 44° NW 04:31:00 10° NE visible
